[[{"header":{"parameterUnit":"m.s-1","parameterCategory":2,"la1":30.2991,"la2":30.254,"lo1":-89.0895,"lo2":-89.0444,"dy":0.0017,"dx":0.0017,"nx":28,"ny":28,"refTime":"2024-05-06T21:00:00:Z","depth":"0","parameterNumber":2,"parameterNumberName":"U-component_of_CURRENTS"},"data":[0,0,0,0,0,0,0,0,0,0,0,0,0,0,0,0,0,0,0,0,0,0,0,0,0,0,0,0,0,0,0,0,0,0,0,0,0,0,0,0,0,0,0,0,0,0,0,0,0,0,0,0,0,0,0,0,0,0,-0.231,-0.2311,0,-0.2317,-0.2317,-0.2317,-0.2282,-0.2282,-0.2281,-0.228,-0.2233,-0.2232,-0.2232,0,0,0,0,0,0,0,0,0,0,0,0,0,-0.2237,-0.2238,-0.231,-0.2311,-0.2311,-0.2317,-0.2317,-0.2317,-0.2282,-0.2282,-0.2281,-0.228,-0.2233,-0.2232,-0.2232,0,0,0,0,0,0,0,0,0,0,0,0,0,-0.2255,-0.2238,-0.231,-0.2298,-0.2297,-0.2317,-0.2317,-0.2317,-0.2283,-0.2282,-0.2281,-0.228,-0.2234,-0.2233,-0.2232,-0.2244,0,0,-0.2228,-0.2228,0,0,0,0,0,0,0,0,-0.2254,-0.2257,-0.2299,-0.2299,-0.2298,-0.2302,-0.2274,-0.2291,-0.2283,-0.2284,-0.228,-0.2279,-0.2254,-0.2252,-0.225,-0.2242,-0.224,-0.2228,-0.2228,-0.2227,-0.2227,0,0,0,0,0,0,0,-0.2253,-0.2256,-0.2309,-0.23,-0.2299,-0.2282,-0.2283,-0.2277,-0.227,-0.2284,-0.2282,-0.229,-0.2253,-0.2251,-0.2248,-0.2239,-0.2228,-0.2228,-0.2227,-0.2227,-0.2252,-0.2254,0,0,0,0,0,0,-0.2263,-0.2256,-0.2309,-0.231,-0.2278,-0.2284,-0.2286,-0.2298,-0.2271,-0.2268,-0.2291,-0.2288,-0.2253,-0.225,-0.2247,-0.227,-0.2227,-0.2226,-0.2226,-0.2251,-0.2253,-0.2254,0,0,0,0,0,0,-0.2262,-0.2268,-0.2309,-0.2285,-0.229,-0.2287,-0.2301,-0.2299,-0.2296,-0.2278,-0.2272,-0.229,-0.2252,-0.2248,-0.2248,-0.2267,-0.2226,-0.2225,-0.225,-0.2252,-0.2253,-0.2309,0,0,0,0,0,0,-0.2259,-0.2267,-0.2276,-0.2287,-0.2292,-0.2328,-0.2302,-0.23,-0.2304,-0.2301,-0.2276,-0.2271,-0.2251,-0.225,-0.2247,-0.2265,-0.2224,-0.2248,-0.2251,-0.2253,-0.2306,-0.2313,-0.2319,0,0,0,0,0,-0.2257,-0.2275,-0.2277,-0.2283,-0.2305,-0.2329,-0.233,-0.2321,-0.2305,-0.2312,-0.2295,-0.2271,-0.2263,-0.225,-0.2246,-0.2264,-0.2247,-0.225,-0.2253,-0.2303,-0.2311,-0.2319,0,0,0,0,0,0,-0.2245,-0.2274,-0.2276,-0.2301,-0.2318,-0.2325,-0.233,-0.2326,-0.2319,-0.2311,-0.2285,-0.228,-0.2289,-0.2272,-0.2258,-0.2281,-0.2252,-0.2255,-0.2292,-0.23,-0.2306,-0.2307,-0.2223,0,0,0,0,0,-0.225,-0.2269,-0.2294,-0.2313,-0.2323,-0.2327,-0.2333,-0.2332,-0.2332,-0.2327,-0.2311,-0.2299,-0.23,-0.2295,-0.2291,-0.2301,-0.2272,-0.2312,-0.2318,-0.2324,-0.2324,-0.2313,-0.2318,-0.2264,-0.2264,-0.2264,0,0,-0.2248,-0.2268,-0.2277,-0.2312,-0.2319,-0.2343,-0.2327,-0.2343,-0.236,-0.2323,-0.2331,-0.2321,-0.2309,-0.2322,-0.2324,-0.2308,-0.2323,-0.2328,-0.2332,-0.2329,-0.2316,-0.2321,-0.2326,-0.2266,-0.2265,-0.2265,0,0,-0.2258,-0.2276,-0.2295,-0.2316,-0.2342,-0.2352,-0.2361,-0.2374,-0.2375,-0.2388,-0.237,-0.2375,-0.2366,-0.2368,-0.2367,-0.2409,-0.236,-0.2406,-0.2436,-0.2425,-0.2429,-0.2432,-0.239,-0.2389,-0.2406,-0.2407,-0.2407,0,-0.2253,-0.2287,-0.2304,-0.2331,-0.2351,-0.236,-0.2386,-0.2398,-0.2407,-0.2414,-0.2396,-0.2399,-0.2391,-0.2413,-0.2429,-0.2424,-0.2393,-0.2405,-0.2432,-0.2435,-0.2437,-0.2394,-0.2392,-0.241,-0.2409,-0.2409,-0.2409,0,-0.2279,-0.2308,-0.2322,-0.2362,-0.2386,-0.2411,-0.2439,-0.2454,-0.2454,-0.2461,-0.2477,-0.2468,-0.2467,-0.2473,-0.2462,-0.2483,-0.2447,-0.2443,-0.2409,-0.2446,-0.2398,-0.2395,-0.2414,-0.2413,-0.2412,-0.2411,0,0,-0.2251,-0.2327,-0.2328,-0.2354,-0.2406,-0.2425,-0.2466,-0.2502,-0.2515,-0.2525,-0.2534,-0.2554,-0.254,-0.2538,-0.2528,-0.2522,-0.2514,-0.2489,-0.2487,-0.2441,-0.246,-0.237,-0.2357,-0.2508,-0.2508,-0.2509,-0.2415,0,-0.2261,-0.2319,-0.2356,-0.2404,-0.2436,-0.2471,-0.2505,-0.2538,-0.2551,-0.256,-0.2565,-0.2568,-0.2568,-0.2559,-0.2561,-0.2529,-0.2511,-0.2538,-0.2437,-0.2433,-0.2344,-0.2353,-0.2263,-0.2167,-0.2411,-0.2411,-0.241,0,-0.2261,-0.2306,-0.236,-0.243,-0.2445,-0.2472,-0.252,-0.2553,-0.2584,-0.2591,-0.2603,-0.2595,-0.2606,-0.2585,-0.2555,-0.2568,-0.2519,-0.2486,-0.2482,-0.2376,-0.2338,-0.2173,-0.2152,-0.2132,-0.2405,-0.2406,-0.2406,0,-0.222,-0.2299,-0.2342,-0.2367,-0.245,-0.2472,-0.2507,-0.2552,-0.2577,-0.2598,-0.2603,-0.2614,-0.2602,-0.2572,-0.2519,-0.2533,-0.2452,-0.2463,-0.2331,-0.2323,-0.2215,-0.2197,-0.2157,-0.2424,-0.2424,-0.2424,-0.2425,0,-0.221,-0.2238,-0.2322,-0.2344,-0.238,-0.2445,-0.2476,-0.2511,-0.2555,-0.2572,-0.2605,-0.2597,-0.2598,-0.2556,-0.251,-0.2401,-0.2445,-0.2327,-0.2296,-0.223,-0.2216,-0.2168,-0.22,-0.2421,-0.2421,-0.2422,-0.2423,0,-0.2145,-0.2211,-0.2254,-0.2338,-0.236,-0.2376,-0.245,-0.2473,-0.2526,-0.2542,-0.2548,-0.2578,-0.2521,-0.2489,-0.2417,-0.2371,-0.2239,-0.2228,-0.2133,-0.2093,-0.1961,-0.1999,-0.1929,-0.1877,-0.2076,-0.2074,-0.2071,0,-0.2115,-0.2132,-0.2216,-0.2234,-0.2266,-0.231,-0.2343,-0.2431,-0.2459,-0.2515,-0.251,-0.2483,-0.2421,-0.2288,-0.2196,-0.2076,-0.2103,-0.1939,-0.1963,-0.193,-0.1951,-0.1994,-0.1959,-0.1836,-0.1832,-0.1829,-0.1826,0,-0.2032,-0.2059,-0.209,-0.2138,-0.2174,-0.2219,-0.2271,-0.2295,-0.239,-0.2396,-0.237,-0.2322,-0.2217,-0.2057,-0.1931,-0.1857,-0.1904,-0.1866,-0.1866,-0.1784,-0.1794,-0.1735,-0.1911,-0.1797,-0.18,-0.1802,-0.1804,-0.1805,-0.1938,-0.1935,-0.1976,-0.2002,-0.2054,-0.2086,-0.206,-0.2133,-0.2138,-0.2097,-0.2161,-0.2018,-0.1962,-0.1758,-0.1695,-0.1572,-0.1651,-0.1537,-0.159,-0.1638,-0.1583,-0.1676,-0.1511,-0.1512,-0.1513,-0.1514,-0.1515,0,-0.18,-0.1813,-0.1837,-0.1864,-0.1856,-0.1936,-0.1969,-0.19,-0.1837,-0.1835,-0.176,-0.164,-0.1526,-0.1492,-0.1407,-0.1333,-0.1328,-0.1312,-0.1372,-0.1352,-0.1443,-0.1427,-0.1195,-0.1195,-0.1195,-0.1195,-0.1195,-0.1195,-0.1728,-0.1693,-0.1709,-0.1639,-0.1658,-0.1577,-0.1551,-0.1468,-0.141,-0.1254,-0.1169,-0.1129,-0.1216,-0.1375,-0.1319,-0.1256,-0.1251,-0.1203,-0.1242,-0.1337,-0.1364,-0.1389,-0.138,-0.1142,-0.1142,-0.1095,-0.1095,-0.1094]},{"header":{"parameterUnit":"m.s-1","parameterCategory":2,"la1":30.2991,"la2":30.254,"lo1":-89.0895,"lo2":-89.0444,"dy":0.0017,"dx":0.0017,"nx":28,"ny":28,"refTime":"2024-05-06T21:00:00:Z","depth":"0","parameterNumber":3,"parameterNumberName":"V-component_of_CURRENTS"},"data":[0,0,0,0,0,0,0,0,0,0,0,0,0,0,0,0,0,0,0,0,0,0,0,0,0,0,0,0,0,0,0,0,0,0,0,0,0,0,0,0,0,0,0,0,0,0,0,0,0,0,0,0,0,0,0,0,0,0,-0.0148,-0.0147,0,-0.0061,-0.006,-0.0059,0.0001,0.0001,0.0001,0.0002,0.0124,0.0127,0.013,0,0,0,0,0,0,0,0,0,0,0,0,0,-0.021,-0.021,-0.0148,-0.0147,-0.0146,-0.0061,-0.006,-0.0059,0.0001,0.0001,0.0001,0.0002,0.0123,0.0127,0.013,0,0,0,0,0,0,0,0,0,0,0,0,0,-0.0159,-0.021,-0.0148,-0.0107,-0.0102,-0.0062,-0.006,-0.0059,0.0001,0.0001,0.0002,0.0002,0.0122,0.0126,0.0131,0.0147,0,0,0.0144,0.0146,0,0,0,0,0,0,0,0,-0.0162,-0.0156,-0.0114,-0.011,-0.0104,-0.0041,-0.0037,0.0012,0.0,-0.0038,0.0002,0.0002,0.0071,0.008,0.0096,0.0152,0.0158,0.0144,0.0147,0.0149,0.015,0,0,0,0,0,0,0,-0.0166,-0.016,-0.0113,-0.0113,-0.0107,-0.0075,-0.0067,-0.0027,0.0014,-0.0034,-0.003,-0.0022,0.0074,0.0091,0.0099,0.0159,0.0144,0.0148,0.0151,0.0153,0.0257,0.0257,0,0,0,0,0,0,-0.0181,-0.0163,-0.0116,-0.011,-0.0133,-0.0074,-0.0066,-0.0061,0.0013,0.0024,-0.0022,-0.0019,0.0083,0.0094,0.0104,0.0136,0.0149,0.0153,0.0156,0.0257,0.0257,0.0257,0,0,0,0,0,0,-0.0183,-0.0178,-0.0119,-0.0135,-0.0125,-0.0074,-0.0069,-0.006,-0.0042,0.0021,0.0034,-0.0014,0.0084,0.0097,0.0138,0.0141,0.0155,0.0159,0.0256,0.0257,0.0257,0.0196,0,0,0,0,0,0,-0.0185,-0.0179,-0.0184,-0.0137,-0.0125,-0.0105,-0.007,-0.0059,-0.0038,-0.0034,0.0032,0.0044,0.0086,0.0131,0.0142,0.0147,0.0162,0.0256,0.0257,0.0257,0.0197,0.0194,0.019,0,0,0,0,0,-0.0188,-0.02,-0.0185,-0.0179,-0.0133,-0.0105,-0.0097,-0.0057,-0.0039,-0.0038,0.0011,0.0042,0.0141,0.0134,0.0147,0.0154,0.0256,0.0257,0.0257,0.0199,0.0194,0.0191,0,0,0,0,0,0,-0.0231,-0.0193,-0.0176,-0.0176,-0.0147,-0.0096,-0.0092,-0.0063,-0.0024,-0.0019,0.0043,0.0058,0.0094,0.0131,0.0123,0.0185,0.0204,0.0207,0.0156,0.0152,0.0149,0.0135,0.0166,0,0,0,0,0,-0.0244,-0.0242,-0.0199,-0.0201,-0.0189,-0.0142,-0.0126,-0.0099,-0.0058,-0.004,0.0007,0.0059,0.0105,0.0133,0.0174,0.0208,0.0253,0.0222,0.0219,0.0215,0.0213,0.0288,0.0291,0.0258,0.0258,0.0258,0,0,-0.0261,-0.0241,-0.024,-0.021,-0.0184,-0.0173,-0.0131,-0.0114,-0.0098,-0.0033,-0.0002,0.0044,0.011,0.0147,0.0167,0.018,0.0246,0.0216,0.0212,0.0213,0.0289,0.0292,0.0295,0.0258,0.0258,0.0258,0,0,-0.0298,-0.0278,-0.0288,-0.0267,-0.0235,-0.0203,-0.0201,-0.0153,-0.0126,-0.0093,-0.0039,0.001,0.0073,0.0127,0.0163,0.0166,0.0221,0.0176,0.0155,0.0227,0.023,0.0233,0.0283,0.0291,0.018,0.018,0.018,0,-0.0322,-0.0325,-0.0288,-0.0289,-0.0277,-0.0221,-0.0225,-0.0189,-0.0133,-0.0108,-0.0094,0.0017,0.0067,0.0134,0.0133,0.0159,0.0199,0.0163,0.0222,0.0226,0.0231,0.0281,0.0291,0.0177,0.0177,0.0178,0.0178,0,-0.036,-0.0362,-0.0367,-0.0348,-0.0329,-0.0326,-0.0273,-0.0248,-0.021,-0.0165,-0.0101,-0.0027,0.0043,0.0067,0.0101,0.0161,0.0176,0.0203,0.0229,0.0231,0.0283,0.0294,0.0173,0.0174,0.0175,0.0176,0,0,-0.0418,-0.0399,-0.0401,-0.0403,-0.0361,-0.0351,-0.0323,-0.0277,-0.025,-0.0189,-0.0145,-0.0062,-0.0015,0.0028,0.0087,0.0149,0.021,0.0181,0.0186,0.0222,0.0354,0.0395,0.0412,0.0247,0.0249,0.025,0.0372,0,-0.0461,-0.0487,-0.0454,-0.0468,-0.0477,-0.0415,-0.0392,-0.0339,-0.0281,-0.0225,-0.0131,-0.0072,-0.0029,0.0005,0.0074,0.0181,0.024,0.0174,0.0353,0.0358,0.039,0.0427,0.0478,0.0595,0.0384,0.0386,0.0388,0,-0.0507,-0.052,-0.0548,-0.0529,-0.0524,-0.0516,-0.0463,-0.0434,-0.0334,-0.0286,-0.0202,-0.0127,-0.0022,0.0008,0.0192,0.0146,0.0238,0.0317,0.0324,0.0393,0.0422,0.0564,0.0624,0.0769,0.0406,0.0405,0.0403,0,-0.0576,-0.058,-0.0607,-0.0602,-0.0572,-0.0563,-0.0539,-0.0458,-0.0423,-0.0324,-0.0284,-0.0148,-0.0071,0.0061,0.0224,0.021,0.0423,0.0432,0.0555,0.0558,0.0654,0.0663,0.0874,0.0556,0.0555,0.0555,0.0555,0,-0.0637,-0.0656,-0.0643,-0.0661,-0.0682,-0.063,-0.0621,-0.0572,-0.0487,-0.0433,-0.0325,-0.0241,-0.0054,0.0093,0.0224,0.0433,0.0432,0.0561,0.0603,0.0632,0.0637,0.0809,0.0851,0.056,0.0559,0.0558,0.0557,0,-0.0705,-0.0698,-0.0729,-0.0719,-0.0719,-0.0733,-0.0692,-0.0673,-0.0589,-0.0513,-0.0484,-0.0297,-0.0093,0.009,0.033,0.0444,0.0725,0.0695,0.0703,0.0744,0.098,0.1015,0.1232,0.1324,0.0851,0.0853,0.0855,0,-0.0741,-0.0767,-0.0789,-0.0815,-0.0814,-0.0822,-0.0821,-0.0742,-0.0703,-0.053,-0.0491,-0.0282,-0.0093,0.0259,0.0497,0.0744,0.0832,0.0911,0.09,0.1018,0.1088,0.1089,0.115,0.1,0.1002,0.1004,0.1006,0,-0.0807,-0.0811,-0.0839,-0.0903,-0.0922,-0.093,-0.0911,-0.0883,-0.0757,-0.0655,-0.045,-0.028,0.0074,0.0426,0.0722,0.085,0.1022,0.0962,0.1106,0.1244,0.124,0.134,0.087,0.1026,0.1024,0.1022,0.1021,0.102,-0.0844,-0.0885,-0.0926,-0.0977,-0.1007,-0.1005,-0.0965,-0.0885,-0.0777,-0.0514,-0.0405,-0.0042,0.0367,0.082,0.097,0.1279,0.121,0.1368,0.1406,0.1398,0.1483,0.1038,0.1223,0.1223,0.1222,0.1221,0.1221,0,-0.0886,-0.093,-0.0994,-0.104,-0.107,-0.1065,-0.0994,-0.0871,-0.0679,-0.0398,-0.0142,0.0406,0.0825,0.118,0.1577,0.1732,0.1742,0.1786,0.1819,0.1865,0.1513,0.1517,0.1748,0.1748,0.1748,0.1747,0.1747,0.1747,-0.0907,-0.0979,-0.1013,-0.1073,-0.1095,-0.1028,-0.0953,-0.0726,-0.0473,0.0012,0.042,0.0715,0.1132,0.1727,0.2105,0.2121,0.2262,0.2217,0.2294,0.2066,0.2029,0.1995,0.2012,0.2343,0.2344,0.2645,0.2648,0.2651]}],[{"header":{"parameterUnit":"m.s-1","parameterCategory":2,"la1":30.2991,"la2":30.254,"lo1":-89.0895,"lo2":-89.0444,"dy":0.0017,"dx":0.0017,"nx":28,"ny":28,"refTime":"2024-05-06T21:00:00:Z","depth":"2","parameterNumber":2,"parameterNumberName":"U-component_of_CURRENTS"},"data":[0,0,0,0,0,0,0,0,0,0,0,0,0,0,0,0,0,0,0,0,0,0,0,0,0,0,0,0,0,0,0,0,0,0,0,0,0,0,0,0,0,0,0,0,0,0,0,0,0,0,0,0,0,0,0,0,0,0,-0.2219,-0.2219,0,-0.2231,-0.2231,-0.2231,-0.2202,-0.2201,-0.2201,-0.22,-0.2162,-0.2161,-0.2161,0,0,0,0,0,0,0,0,0,0,0,0,0,-0.2146,-0.2148,-0.2219,-0.2219,-0.222,-0.2231,-0.2231,-0.2231,-0.2202,-0.2201,-0.2201,-0.22,-0.2162,-0.2162,-0.2161,0,0,0,0,0,0,0,0,0,0,0,0,0,-0.2167,-0.2148,-0.2219,-0.221,-0.2209,-0.2231,-0.2231,-0.2231,-0.2202,-0.2201,-0.2201,-0.22,-0.2162,-0.2162,-0.2161,-0.2173,0,0,-0.2159,-0.2158,0,0,0,0,0,0,0,0,-0.2166,-0.2169,-0.221,-0.221,-0.221,-0.2217,-0.2191,-0.221,-0.2202,-0.2201,-0.22,-0.2199,-0.2179,-0.2177,-0.2176,-0.2171,-0.217,-0.2159,-0.2158,-0.2158,-0.2158,0,0,0,0,0,0,0,-0.2164,-0.2168,-0.222,-0.2211,-0.2211,-0.2197,-0.2199,-0.2195,-0.2191,-0.2201,-0.22,-0.2208,-0.2178,-0.2177,-0.2175,-0.2169,-0.2159,-0.2158,-0.2157,-0.2157,-0.2187,-0.2189,0,0,0,0,0,0,-0.2173,-0.2167,-0.2219,-0.222,-0.2189,-0.2199,-0.2201,-0.2213,-0.2192,-0.2189,-0.2208,-0.2206,-0.2179,-0.2176,-0.2174,-0.2199,-0.2158,-0.2157,-0.2157,-0.2186,-0.2188,-0.2189,0,0,0,0,0,0,-0.2171,-0.2178,-0.2219,-0.2196,-0.2201,-0.2202,-0.2215,-0.2214,-0.2214,-0.2199,-0.2194,-0.2211,-0.2178,-0.2175,-0.2178,-0.2197,-0.2157,-0.2156,-0.2185,-0.2187,-0.2188,-0.2242,0,0,0,0,0,0,-0.2169,-0.2177,-0.2186,-0.2197,-0.2203,-0.224,-0.2216,-0.2215,-0.2222,-0.2219,-0.2199,-0.2195,-0.2177,-0.218,-0.2178,-0.2195,-0.2155,-0.2183,-0.2186,-0.2188,-0.2239,-0.2246,-0.2252,0,0,0,0,0,-0.2167,-0.2184,-0.2186,-0.2193,-0.2216,-0.2241,-0.2242,-0.2237,-0.2223,-0.2231,-0.2218,-0.2195,-0.2193,-0.218,-0.2177,-0.2195,-0.2182,-0.2185,-0.2188,-0.2236,-0.2244,-0.2251,0,0,0,0,0,0,-0.2156,-0.2184,-0.2186,-0.2211,-0.2229,-0.2238,-0.2245,-0.2243,-0.2239,-0.2233,-0.221,-0.2206,-0.2217,-0.2202,-0.2188,-0.2212,-0.2185,-0.2187,-0.2222,-0.223,-0.2236,-0.2237,-0.2155,0,0,0,0,0,-0.2161,-0.2179,-0.2205,-0.2223,-0.2234,-0.224,-0.2248,-0.2249,-0.2251,-0.2248,-0.2236,-0.2226,-0.2228,-0.2225,-0.2222,-0.2234,-0.2207,-0.2245,-0.2251,-0.2256,-0.2257,-0.2245,-0.225,-0.2198,-0.2198,-0.2198,0,0,-0.216,-0.2179,-0.2188,-0.2222,-0.2231,-0.2256,-0.2241,-0.2261,-0.2278,-0.2245,-0.2256,-0.2248,-0.2237,-0.2252,-0.2255,-0.2239,-0.2255,-0.226,-0.2265,-0.2262,-0.2249,-0.2254,-0.2258,-0.22,-0.22,-0.2199,0,0,-0.217,-0.2188,-0.2207,-0.2228,-0.2256,-0.2267,-0.2276,-0.2292,-0.2295,-0.2311,-0.2295,-0.2301,-0.2296,-0.2297,-0.2296,-0.2338,-0.2291,-0.2335,-0.2365,-0.2354,-0.2358,-0.2361,-0.2321,-0.2321,-0.2336,-0.2336,-0.2336,0,-0.2167,-0.2199,-0.2216,-0.2244,-0.2264,-0.2275,-0.2302,-0.2315,-0.2328,-0.2336,-0.2321,-0.2326,-0.232,-0.234,-0.2356,-0.2352,-0.2324,-0.2335,-0.2361,-0.2364,-0.2366,-0.2325,-0.2323,-0.2339,-0.2339,-0.2339,-0.2338,0,-0.2192,-0.2221,-0.2236,-0.2275,-0.23,-0.2326,-0.2354,-0.2371,-0.2374,-0.2383,-0.24,-0.2392,-0.2393,-0.2399,-0.2389,-0.241,-0.2376,-0.2371,-0.2339,-0.2374,-0.2329,-0.2326,-0.2343,-0.2342,-0.2342,-0.2341,0,0,-0.2168,-0.2241,-0.2243,-0.2268,-0.232,-0.234,-0.2381,-0.2418,-0.2431,-0.2444,-0.2454,-0.2475,-0.2463,-0.2462,-0.2452,-0.2446,-0.244,-0.2417,-0.2415,-0.2371,-0.2389,-0.23,-0.2288,-0.2435,-0.2435,-0.2435,-0.2346,0,-0.2179,-0.2235,-0.2271,-0.2319,-0.235,-0.2385,-0.2419,-0.2452,-0.2467,-0.2478,-0.2483,-0.2488,-0.249,-0.2482,-0.2485,-0.2454,-0.2437,-0.2463,-0.2366,-0.2363,-0.2275,-0.2284,-0.2135,-0.2038,-0.2343,-0.2343,-0.2342,0,-0.2181,-0.2224,-0.2277,-0.2343,-0.2358,-0.2387,-0.2434,-0.2467,-0.2498,-0.2506,-0.252,-0.2514,-0.2525,-0.2507,-0.2479,-0.2492,-0.2446,-0.2415,-0.2411,-0.2306,-0.2269,-0.2055,-0.2021,-0.2337,-0.2337,-0.2338,-0.2338,0,-0.2141,-0.2218,-0.226,-0.2284,-0.2364,-0.2387,-0.2421,-0.2466,-0.2491,-0.2514,-0.252,-0.2532,-0.2523,-0.2494,-0.2446,-0.246,-0.2382,-0.2393,-0.2264,-0.2256,-0.21,-0.2078,-0.2355,-0.2355,-0.2355,-0.2356,-0.2356,0,-0.2132,-0.2161,-0.2242,-0.2263,-0.2299,-0.2362,-0.2393,-0.2428,-0.2472,-0.2487,-0.2523,-0.2516,-0.2519,-0.248,-0.2437,-0.2332,-0.2375,-0.2261,-0.223,-0.2113,-0.2094,-0.2335,-0.2334,-0.2352,-0.2353,-0.2354,-0.2354,0,-0.2072,-0.2136,-0.2177,-0.2259,-0.228,-0.2297,-0.237,-0.2391,-0.2445,-0.246,-0.2468,-0.25,-0.2446,-0.2417,-0.2349,-0.2304,-0.2221,-0.2165,-0.2013,-0.1966,-0.2103,-0.2106,-0.2025,-0.2021,-0.2018,-0.2015,-0.2013,0,-0.2045,-0.2062,-0.2142,-0.2159,-0.2192,-0.2235,-0.2267,-0.2353,-0.2379,-0.2434,-0.2428,-0.2406,-0.2347,-0.222,-0.2123,-0.2005,-0.2096,-0.1821,-0.1834,-0.2092,-0.2071,-0.2079,-0.2086,-0.164,-0.1635,-0.163,-0.1627,0,-0.1969,-0.1995,-0.2025,-0.207,-0.2105,-0.2146,-0.2196,-0.2219,-0.2309,-0.2318,-0.2294,-0.2249,-0.2141,-0.1948,-0.1822,-0.1747,-0.1837,-0.1731,-0.2028,-0.1755,-0.1724,-0.1706,-0.1726,-0.159,-0.1593,-0.1596,-0.1598,-0.16,-0.1882,-0.188,-0.1918,-0.1942,-0.1991,-0.2016,-0.1992,-0.2058,-0.2063,-0.2024,-0.2085,-0.1933,-0.1902,-0.1595,-0.1501,-0.1427,-0.1556,-0.1508,-0.1523,-0.1542,-0.1522,-0.1488,-0.1303,-0.1305,-0.1307,-0.1308,-0.131,0,-0.1752,-0.1765,-0.1787,-0.1809,-0.1795,-0.1875,-0.1904,-0.1839,-0.1778,-0.1776,-0.1702,-0.146,-0.1331,-0.1296,-0.1119,-0.1097,-0.1109,-0.1065,-0.1092,-0.1129,-0.1162,-0.1126,-0.08,-0.0798,-0.0797,-0.0796,0,0,-0.1684,-0.1649,-0.1661,-0.1587,-0.1604,-0.1529,-0.1505,-0.1436,-0.1387,-0.1254,-0.1157,-0.1202,-0.1226,-0.099,-0.0961,-0.085,-0.0978,-0.0805,-0.1213,-0.1279,-0.131,-0.1413,-0.1397,0,0,0,0,0]},{"header":{"parameterUnit":"m.s-1","parameterCategory":2,"la1":30.2991,"la2":30.254,"lo1":-89.0895,"lo2":-89.0444,"dy":0.0017,"dx":0.0017,"nx":28,"ny":28,"refTime":"2024-05-06T21:00:00:Z","depth":"2","parameterNumber":3,"parameterNumberName":"V-component_of_CURRENTS"},"data":[0,0,0,0,0,0,0,0,0,0,0,0,0,0,0,0,0,0,0,0,0,0,0,0,0,0,0,0,0,0,0,0,0,0,0,0,0,0,0,0,0,0,0,0,0,0,0,0,0,0,0,0,0,0,0,0,0,0,-0.0229,-0.0228,0,-0.0142,-0.0141,-0.014,-0.0083,-0.0082,-0.0082,-0.0082,0.0041,0.0044,0.0047,0,0,0,0,0,0,0,0,0,0,0,0,0,-0.0291,-0.029,-0.0229,-0.0228,-0.0227,-0.0142,-0.0141,-0.0139,-0.0083,-0.0082,-0.0082,-0.0082,0.004,0.0044,0.0048,0,0,0,0,0,0,0,0,0,0,0,0,0,-0.0239,-0.029,-0.0229,-0.0189,-0.0185,-0.0142,-0.0141,-0.0139,-0.0083,-0.0082,-0.0082,-0.0081,0.0039,0.0044,0.0048,0.0067,0,0,0.0062,0.0064,0,0,0,0,0,0,0,0,-0.0242,-0.0237,-0.0196,-0.0192,-0.0187,-0.0123,-0.0117,-0.0069,-0.0083,-0.012,-0.0082,-0.0081,-0.0011,-0.0003,0.0014,0.0073,0.0078,0.0062,0.0065,0.0067,0.0068,0,0,0,0,0,0,0,-0.0246,-0.024,-0.0194,-0.0195,-0.0189,-0.0156,-0.0149,-0.0108,-0.0068,-0.0117,-0.0113,-0.0105,-0.0008,0.0009,0.0017,0.008,0.0062,0.0066,0.0069,0.0071,0.0177,0.0178,0,0,0,0,0,0,-0.0262,-0.0244,-0.0196,-0.0191,-0.0215,-0.0156,-0.0148,-0.0143,-0.0069,-0.0058,-0.0105,-0.0103,0.0001,0.0012,0.0022,0.0054,0.0067,0.0071,0.0074,0.0177,0.0177,0.0178,0,0,0,0,0,0,-0.0264,-0.0259,-0.02,-0.0216,-0.0206,-0.0156,-0.0151,-0.0142,-0.0123,-0.0061,-0.0048,-0.0097,0.0002,0.0015,0.0057,0.0059,0.0073,0.0077,0.0177,0.0177,0.0177,0.0116,0,0,0,0,0,0,-0.0266,-0.026,-0.0264,-0.0217,-0.0206,-0.0183,-0.0151,-0.0141,-0.012,-0.0115,-0.0049,-0.0037,0.0003,0.005,0.0062,0.0066,0.0081,0.0177,0.0177,0.0177,0.0118,0.0114,0.0111,0,0,0,0,0,-0.0268,-0.0279,-0.0265,-0.0259,-0.0213,-0.0184,-0.0175,-0.0137,-0.012,-0.0117,-0.007,-0.0039,0.006,0.0054,0.0068,0.0073,0.0177,0.0177,0.0177,0.012,0.0115,0.0111,0,0,0,0,0,0,-0.0309,-0.0272,-0.0257,-0.0256,-0.0226,-0.0175,-0.017,-0.0142,-0.0102,-0.0097,-0.0037,-0.0022,0.0015,0.0052,0.0044,0.0105,0.0123,0.0126,0.0075,0.0071,0.0068,0.0052,0.0085,0,0,0,0,0,-0.0321,-0.0319,-0.0277,-0.0278,-0.0266,-0.0218,-0.0202,-0.0176,-0.0134,-0.0116,-0.007,-0.0019,0.0026,0.0054,0.0095,0.013,0.0172,0.0143,0.0139,0.0136,0.0132,0.0201,0.0203,0.0178,0.0178,0.0178,0,0,-0.0337,-0.0318,-0.0316,-0.0286,-0.026,-0.0248,-0.0208,-0.0189,-0.0174,-0.0109,-0.0078,-0.0032,0.0031,0.0068,0.0088,0.0101,0.0163,0.0136,0.0133,0.0131,0.0201,0.0204,0.0206,0.0179,0.0179,0.0179,0,0,-0.0371,-0.0352,-0.036,-0.0339,-0.0306,-0.0275,-0.0273,-0.0225,-0.0198,-0.0164,-0.0113,-0.0065,-0.0001,0.0049,0.0082,0.0086,0.0138,0.0097,0.0073,0.0139,0.0141,0.0144,0.0191,0.0199,0.01,0.01,0.01,0,-0.0393,-0.0396,-0.0359,-0.0359,-0.0346,-0.0292,-0.0295,-0.0259,-0.0203,-0.018,-0.0164,-0.0058,-0.0008,0.0053,0.0051,0.0078,0.0116,0.0081,0.0134,0.0137,0.0141,0.0189,0.0198,0.0097,0.0097,0.0098,0.0098,0,-0.0427,-0.0428,-0.0432,-0.0414,-0.0395,-0.039,-0.0338,-0.0314,-0.0277,-0.0234,-0.0174,-0.0102,-0.0036,-0.0013,0.002,0.0073,0.009,0.0116,0.0141,0.014,0.0191,0.0201,0.0093,0.0094,0.0095,0.0095,0,0,-0.0482,-0.0462,-0.0464,-0.0466,-0.0425,-0.0414,-0.0387,-0.0344,-0.0321,-0.026,-0.0221,-0.0142,-0.0097,-0.0056,0.0,0.0056,0.0113,0.0089,0.0094,0.0129,0.0246,0.0285,0.0301,0.0147,0.0149,0.015,0.0267,0,-0.0522,-0.0545,-0.0514,-0.0527,-0.0534,-0.0475,-0.0454,-0.0405,-0.035,-0.0297,-0.0209,-0.0155,-0.0112,-0.008,-0.0017,0.0085,0.0139,0.0078,0.0248,0.0253,0.0283,0.0314,0.0254,0.0355,0.0278,0.0279,0.0281,0,-0.0566,-0.0577,-0.0603,-0.0586,-0.0581,-0.0574,-0.0527,-0.0499,-0.0407,-0.0361,-0.0283,-0.0211,-0.0115,-0.0083,0.0088,0.0046,0.0134,0.0209,0.0216,0.0282,0.0313,0.0347,0.0378,0.0299,0.0297,0.0296,0.0295,0,-0.0633,-0.0635,-0.0661,-0.0657,-0.0628,-0.0621,-0.0599,-0.0523,-0.0493,-0.04,-0.0363,-0.0237,-0.0164,-0.0039,0.0117,0.0105,0.0304,0.0313,0.043,0.0434,0.0431,0.0432,0.0427,0.0427,0.0427,0.0427,0.0426,0,-0.0692,-0.0711,-0.0697,-0.0714,-0.0736,-0.0686,-0.068,-0.0635,-0.0556,-0.0509,-0.0405,-0.0328,-0.0149,-0.001,0.0115,0.0313,0.0311,0.0434,0.0475,0.0408,0.0405,0.0395,0.0389,0.0431,0.043,0.0429,0.0428,0,-0.076,-0.0751,-0.0781,-0.0771,-0.0772,-0.0787,-0.075,-0.0734,-0.0654,-0.0586,-0.0559,-0.0382,-0.0189,-0.0013,0.0213,0.0322,0.0494,0.0559,0.046,0.0487,0.0575,0.0565,0.0703,0.0706,0.0708,0.071,0.0711,0,-0.0796,-0.082,-0.084,-0.0866,-0.0865,-0.0874,-0.0876,-0.08,-0.0766,-0.0605,-0.057,-0.0372,-0.0196,0.0139,0.0351,0.0583,0.0572,0.065,0.0624,0.0582,0.0607,0.0594,0.0581,0.059,0.059,0.059,0.0591,0,-0.0862,-0.0865,-0.0893,-0.0955,-0.0974,-0.0982,-0.0967,-0.0944,-0.0826,-0.0733,-0.0544,-0.0386,-0.006,0.0212,0.049,0.06,0.0607,0.0666,0.067,0.053,0.0485,0.0507,0.0496,0.0594,0.0593,0.0593,0.0593,0.0593,-0.0902,-0.0942,-0.0981,-0.1032,-0.1062,-0.1064,-0.1037,-0.0969,-0.0876,-0.0668,-0.0535,-0.0261,-0.0033,0.0394,0.0566,0.0702,0.0708,0.0721,0.0715,0.0711,0.0678,0.064,0.0769,0.077,0.0771,0.0771,0.0772,0,-0.0952,-0.0992,-0.1055,-0.1105,-0.1141,-0.113,-0.1073,-0.1006,-0.0854,-0.0629,-0.0408,-0.0164,0.0149,0.0376,0.0617,0.0767,0.0715,0.0756,0.0661,0.0657,0.0654,0.0614,0.0691,0.0692,0.0692,0.0693,0,0,-0.0977,-0.1049,-0.1082,-0.1156,-0.1181,-0.1148,-0.1088,-0.0994,-0.0816,-0.0562,-0.0336,-0.0055,0.0202,0.0354,0.0507,0.0625,0.0598,0.0609,0.0653,0.0516,0.0512,0.0607,0.0539,0,0,0,0,0]}],[{"header":{"parameterUnit":"m.s-1","parameterCategory":2,"la1":30.2991,"la2":30.254,"lo1":-89.0895,"lo2":-89.0444,"dy":0.0017,"dx":0.0017,"nx":28,"ny":28,"refTime":"2024-05-06T21:00:00:Z","depth":"4","parameterNumber":2,"parameterNumberName":"U-component_of_CURRENTS"},"data":[0,0,0,0,0,0,0,0,0,0,0,0,0,0,0,0,0,0,0,0,0,0,0,0,0,0,0,0,0,0,0,0,0,0,0,0,0,0,0,0,0,0,0,0,0,0,0,0,0,0,0,0,0,0,0,0,0,0,-0.1573,-0.1574,0,-0.164,-0.1641,-0.1641,-0.1676,-0.1677,-0.1677,-0.1677,-0.1727,-0.1728,-0.1729,0,0,0,0,0,0,0,0,0,0,0,0,0,-0.1475,-0.1476,-0.1573,-0.1574,-0.1575,-0.164,-0.1641,-0.1642,-0.1676,-0.1677,-0.1677,-0.1677,-0.1726,-0.1728,-0.1729,0,0,0,0,0,0,0,0,0,0,0,0,0,-0.1525,-0.1477,-0.1573,-0.1602,-0.1605,-0.164,-0.1641,-0.1642,-0.1676,-0.1677,-0.1677,-0.1677,-0.1726,-0.1728,-0.1729,-0.1732,0,0,-0.1734,-0.1735,0,0,0,0,0,0,0,0,-0.1522,-0.1529,-0.1596,-0.16,-0.1604,-0.1652,-0.1625,-0.1672,-0.1676,-0.1647,-0.1677,-0.1678,-0.1701,-0.1705,-0.1714,-0.1734,-0.1737,-0.1734,-0.1735,-0.1736,-0.1737,0,0,0,0,0,0,0,-0.1519,-0.1526,-0.1597,-0.1598,-0.1602,-0.1612,-0.1619,-0.1634,-0.1669,-0.165,-0.1653,-0.1664,-0.1703,-0.1712,-0.1716,-0.1737,-0.1734,-0.1736,-0.1737,-0.1737,-0.1833,-0.1834,0,0,0,0,0,0,-0.1515,-0.1523,-0.1595,-0.16,-0.1566,-0.1613,-0.1621,-0.1635,-0.167,-0.1676,-0.1663,-0.1665,-0.1709,-0.1714,-0.1717,-0.1789,-0.1736,-0.1738,-0.1739,-0.1831,-0.1833,-0.1835,0,0,0,0,0,0,-0.1512,-0.1521,-0.1593,-0.1564,-0.1574,-0.1615,-0.1629,-0.1636,-0.1674,-0.1681,-0.1686,-0.1698,-0.171,-0.1715,-0.176,-0.1788,-0.1738,-0.174,-0.1829,-0.1832,-0.1834,-0.1889,0,0,0,0,0,0,-0.1509,-0.1519,-0.1541,-0.1564,-0.1576,-0.1635,-0.1629,-0.1637,-0.1679,-0.1683,-0.1712,-0.1716,-0.1711,-0.1758,-0.1762,-0.179,-0.1741,-0.1827,-0.183,-0.1833,-0.1885,-0.1893,-0.1899,0,0,0,0,0,-0.1506,-0.1529,-0.1541,-0.1551,-0.16,-0.1636,-0.1644,-0.1672,-0.1681,-0.1706,-0.1728,-0.1716,-0.1779,-0.1761,-0.1765,-0.1794,-0.1826,-0.1829,-0.1833,-0.1882,-0.1891,-0.1899,0,0,0,0,0,0,-0.15,-0.1536,-0.155,-0.1585,-0.1619,-0.1644,-0.1673,-0.169,-0.1727,-0.1738,-0.1739,-0.1744,-0.1792,-0.1789,-0.1769,-0.183,-0.1799,-0.1804,-0.1835,-0.1844,-0.1851,-0.1843,-0.1743,0,0,0,0,0,-0.1508,-0.1537,-0.157,-0.1602,-0.1622,-0.1653,-0.1677,-0.1698,-0.1727,-0.1745,-0.1765,-0.1785,-0.1805,-0.1823,-0.1838,-0.1875,-0.1848,-0.1896,-0.1904,-0.191,-0.1907,-0.1897,-0.1902,-0.1846,-0.1846,-0.1846,0,0,-0.1515,-0.154,-0.1557,-0.1604,-0.1632,-0.1668,-0.1669,-0.1716,-0.1751,-0.1743,-0.1803,-0.1815,-0.1821,-0.1862,-0.1882,-0.1866,-0.1911,-0.1914,-0.1919,-0.1913,-0.1901,-0.1906,-0.1911,-0.1848,-0.1848,-0.1847,0,0,-0.1535,-0.1567,-0.1595,-0.1628,-0.168,-0.17,-0.172,-0.1765,-0.1793,-0.1846,-0.1847,-0.1879,-0.1916,-0.1923,-0.193,-0.1988,-0.1949,-0.1997,-0.2028,-0.2019,-0.2023,-0.2026,-0.1993,-0.1993,-0.2,-0.2001,-0.2001,0,-0.1544,-0.1583,-0.1611,-0.1648,-0.1681,-0.1717,-0.1757,-0.179,-0.1846,-0.1868,-0.1875,-0.1928,-0.1942,-0.1974,-0.1997,-0.2003,-0.1981,-0.1994,-0.2027,-0.2029,-0.2031,-0.1996,-0.1995,-0.2004,-0.2003,-0.2003,-0.2003,0,-0.1574,-0.162,-0.1643,-0.1699,-0.1737,-0.1782,-0.1827,-0.1871,-0.1908,-0.1932,-0.1984,-0.2001,-0.2027,-0.2041,-0.204,-0.2069,-0.2041,-0.2035,-0.2,-0.204,-0.2001,-0.1999,-0.2008,-0.2007,-0.2006,-0.2005,0,0,-0.1553,-0.1646,-0.1657,-0.1693,-0.1771,-0.1799,-0.1865,-0.1922,-0.1954,-0.2008,-0.2039,-0.2088,-0.2093,-0.21,-0.2102,-0.2101,-0.2105,-0.2081,-0.2079,-0.2039,-0.2066,-0.1927,-0.1911,-0.2103,-0.2104,-0.2104,-0.2029,0,-0.1571,-0.1642,-0.1689,-0.1762,-0.18,-0.1859,-0.191,-0.1966,-0.2009,-0.2047,-0.2072,-0.2105,-0.2116,-0.2128,-0.2135,-0.2115,-0.2103,-0.2124,-0.2041,-0.2037,-0.1902,-0.1906,-0.2104,-0.2027,-0.2026,-0.2026,-0.2026,0,-0.1576,-0.1627,-0.1702,-0.1789,-0.1812,-0.1862,-0.1939,-0.199,-0.2049,-0.208,-0.2117,-0.2131,-0.2157,-0.2149,-0.2135,-0.2148,-0.2114,-0.2089,-0.2085,-0.1932,-0.1894,-0.1981,-0.2021,-0.2022,-0.2022,-0.2022,-0.2022,0,-0.1527,-0.163,-0.1691,-0.1724,-0.1828,-0.1874,-0.1929,-0.2001,-0.2038,-0.2097,-0.2117,-0.2148,-0.2159,-0.214,-0.2109,-0.2125,-0.2058,-0.207,-0.1907,-0.1896,-0.202,-0.2017,-0.204,-0.204,-0.204,-0.204,-0.2041,0,-0.1509,-0.156,-0.1677,-0.1709,-0.1771,-0.1854,-0.1917,-0.1971,-0.2039,-0.206,-0.2128,-0.2124,-0.2159,-0.213,-0.2099,-0.1982,-0.2051,-0.1897,-0.1865,-0.2045,-0.2046,-0.2017,-0.2015,-0.2038,-0.2038,-0.2039,-0.2039,0,-0.144,-0.1526,-0.1595,-0.1714,-0.1751,-0.1793,-0.1904,-0.1936,-0.2017,-0.2042,-0.2061,-0.2111,-0.2065,-0.2059,-0.2008,-0.1946,-0.1861,-0.1799,-0.1969,-0.1951,-0.1709,-0.1712,-0.1612,-0.1606,-0.1602,-0.1598,-0.1594,0,-0.1408,-0.1442,-0.1572,-0.1608,-0.1669,-0.1749,-0.1796,-0.1906,-0.1932,-0.2004,-0.1991,-0.1991,-0.1998,-0.1801,-0.1826,-0.1729,-0.1711,-0.1664,-0.1709,-0.1685,-0.1664,-0.1674,-0.1683,-0.1587,-0.1586,-0.1584,-0.1583,0,-0.1336,-0.1397,-0.145,-0.1523,-0.1589,-0.1644,-0.1718,-0.1723,-0.1825,-0.1922,-0.1852,-0.1807,-0.1742,-0.1689,-0.1616,-0.1559,-0.1699,-0.1614,-0.1625,-0.1668,-0.1653,-0.164,-0.1654,-0.1567,-0.1569,-0.1571,-0.1572,0,-0.1273,-0.1289,-0.1363,-0.1407,-0.1486,-0.1498,-0.1561,-0.1578,-0.1615,-0.1705,-0.1671,-0.1665,-0.1712,-0.1597,-0.1532,-0.1459,-0.1447,-0.1414,-0.1435,-0.1453,-0.1436,-0.1397,-0.1187,0,0,0,0,0,-0.1196,-0.1195,-0.1235,-0.127,-0.134,-0.1368,-0.1484,-0.1549,-0.1653,-0.1556,-0.1607,-0.1533,-0.1438,-0.1443,-0.1328,-0.1462,-0.1457,-0.1326,-0.1432,-0.1476,-0.1495,-0.149,0,0,0,0,0,0,-0.1143,-0.1178,-0.1187,-0.1138,-0.1121,-0.1172,-0.1232,-0.1311,-0.1271,-0.138,-0.1329,-0.1416,-0.134,-0.144,-0.1275,-0.1278,-0.1312,-0.1341,-0.1336,-0.1465,-0.1482,-0.1498,-0.15,0,0,0,0,0]},{"header":{"parameterUnit":"m.s-1","parameterCategory":2,"la1":30.2991,"la2":30.254,"lo1":-89.0895,"lo2":-89.0444,"dy":0.0017,"dx":0.0017,"nx":28,"ny":28,"refTime":"2024-05-06T21:00:00:Z","depth":"4","parameterNumber":3,"parameterNumberName":"V-component_of_CURRENTS"},"data":[0,0,0,0,0,0,0,0,0,0,0,0,0,0,0,0,0,0,0,0,0,0,0,0,0,0,0,0,0,0,0,0,0,0,0,0,0,0,0,0,0,0,0,0,0,0,0,0,0,0,0,0,0,0,0,0,0,0,-0.0206,-0.0206,0,-0.014,-0.014,-0.0139,-0.0103,-0.0103,-0.0103,-0.0103,0.0004,0.0007,0.001,0,0,0,0,0,0,0,0,0,0,0,0,0,-0.0246,-0.0246,-0.0206,-0.0206,-0.0205,-0.0141,-0.014,-0.0139,-0.0103,-0.0103,-0.0103,-0.0103,0.0003,0.0007,0.001,0,0,0,0,0,0,0,0,0,0,0,0,0,-0.0209,-0.0246,-0.0206,-0.018,-0.0177,-0.0141,-0.014,-0.0138,-0.0103,-0.0103,-0.0103,-0.0103,0.0002,0.0006,0.0011,0.0038,0,0,0.0024,0.0026,0,0,0,0,0,0,0,0,-0.0211,-0.0207,-0.0185,-0.0182,-0.0179,-0.0131,-0.0115,-0.0078,-0.0103,-0.013,-0.0103,-0.0103,-0.0038,-0.0031,-0.0017,0.0043,0.0048,0.0024,0.0027,0.0029,0.003,0,0,0,0,0,0,0,-0.0214,-0.0209,-0.0179,-0.0184,-0.018,-0.0153,-0.0148,-0.0107,-0.0083,-0.0127,-0.0125,-0.012,-0.0036,-0.0021,-0.0014,0.0049,0.0024,0.0028,0.0031,0.0032,0.0135,0.0135,0,0,0,0,0,0,-0.0227,-0.0212,-0.0181,-0.0177,-0.0197,-0.0153,-0.0147,-0.0145,-0.0084,-0.0075,-0.012,-0.0118,-0.0028,-0.0019,-0.001,0.0017,0.0029,0.0033,0.0035,0.0135,0.0135,0.0135,0,0,0,0,0,0,-0.0228,-0.0225,-0.0184,-0.0194,-0.0187,-0.0153,-0.015,-0.0144,-0.0131,-0.0079,-0.0069,-0.0114,-0.0028,-0.0016,0.0023,0.0022,0.0035,0.0039,0.0134,0.0135,0.0135,0.0077,0,0,0,0,0,0,-0.023,-0.0226,-0.0231,-0.0195,-0.0187,-0.0169,-0.015,-0.0143,-0.0128,-0.0125,-0.007,-0.006,-0.0027,0.0017,0.0028,0.0028,0.0042,0.0134,0.0135,0.0135,0.0079,0.0076,0.0073,0,0,0,0,0,-0.0232,-0.0239,-0.0232,-0.0228,-0.0195,-0.0169,-0.0163,-0.0137,-0.0128,-0.0125,-0.0086,-0.0062,0.0026,0.002,0.0033,0.0035,0.0134,0.0134,0.0135,0.0081,0.0076,0.0073,0,0,0,0,0,0,-0.0258,-0.0235,-0.0227,-0.0227,-0.0204,-0.0164,-0.0161,-0.0141,-0.0108,-0.0106,-0.0056,-0.0044,-0.0012,0.0022,0.0014,0.0065,0.0083,0.0086,0.0037,0.0034,0.0031,0.0014,0.0045,0,0,0,0,0,-0.0268,-0.0269,-0.0238,-0.024,-0.0231,-0.0196,-0.0184,-0.0166,-0.0132,-0.0118,-0.008,-0.0038,0.0,0.0024,0.0061,0.0093,0.0126,0.0102,0.0099,0.0096,0.0092,0.0139,0.014,0.0136,0.0136,0.0136,0,0,-0.028,-0.0267,-0.0268,-0.0246,-0.0227,-0.0218,-0.0189,-0.0174,-0.0164,-0.011,-0.0086,-0.0048,0.0006,0.0037,0.0055,0.0065,0.0114,0.0096,0.0093,0.0091,0.014,0.014,0.014,0.0136,0.0136,0.0136,0,0,-0.0302,-0.0292,-0.0299,-0.0283,-0.026,-0.0237,-0.0236,-0.0199,-0.0181,-0.0151,-0.0113,-0.0076,-0.0017,0.0019,0.0046,0.005,0.0092,0.0061,0.0036,0.0082,0.0083,0.0084,0.012,0.0125,0.0063,0.0063,0.0063,0,-0.0318,-0.0322,-0.0296,-0.0296,-0.029,-0.025,-0.0253,-0.0226,-0.0181,-0.0167,-0.0153,-0.0068,-0.0026,0.0018,0.0016,0.0042,0.0072,0.0044,0.0077,0.0079,0.0081,0.0118,0.0124,0.006,0.006,0.006,0.0061,0,-0.0339,-0.0345,-0.0347,-0.0337,-0.0324,-0.0322,-0.0285,-0.0268,-0.0242,-0.0212,-0.0169,-0.0108,-0.0058,-0.0039,-0.0009,0.0025,0.0042,0.0063,0.0083,0.0077,0.0117,0.0124,0.0056,0.0057,0.0058,0.0058,0,0,-0.0376,-0.0366,-0.037,-0.0376,-0.0349,-0.0342,-0.0325,-0.0299,-0.0288,-0.0239,-0.0216,-0.0151,-0.0119,-0.0086,-0.0039,0.0001,0.0038,0.0032,0.0035,0.0059,0.0134,0.0128,0.0136,0.0065,0.0066,0.0066,0.0154,0,-0.0405,-0.0424,-0.0405,-0.0422,-0.0429,-0.0392,-0.0381,-0.035,-0.0312,-0.0278,-0.0211,-0.0171,-0.0134,-0.011,-0.0065,0.0017,0.0055,0.0012,0.0143,0.0147,0.0136,0.0143,0.007,0.016,0.0161,0.0163,0.0164,0,-0.0433,-0.0445,-0.0471,-0.0471,-0.047,-0.0472,-0.0452,-0.0434,-0.0373,-0.0342,-0.0287,-0.0228,-0.0157,-0.0127,0.0001,-0.0028,0.0042,0.0102,0.0108,0.0127,0.0154,0.017,0.0177,0.0176,0.0175,0.0174,0.0173,0,-0.048,-0.0491,-0.0518,-0.0519,-0.0508,-0.0514,-0.0506,-0.0461,-0.0445,-0.0381,-0.0357,-0.0263,-0.0205,-0.011,0.0017,0.0011,0.0159,0.0172,0.0231,0.0231,0.0235,0.0233,0.0253,0.0253,0.0253,0.0253,0.0253,0,-0.0517,-0.0541,-0.0547,-0.0564,-0.0597,-0.0567,-0.0581,-0.0555,-0.0506,-0.0479,-0.0398,-0.0344,-0.0198,-0.009,0.001,0.0144,0.0158,0.0226,0.0255,0.0208,0.0203,0.024,0.0237,0.0256,0.0255,0.0255,0.0254,0,-0.056,-0.0563,-0.0599,-0.0611,-0.0622,-0.0644,-0.0641,-0.0638,-0.059,-0.0549,-0.0529,-0.0394,-0.025,-0.0108,0.0069,0.0139,0.0264,0.0305,0.0241,0.0265,0.0304,0.0297,0.0374,0.0375,0.0375,0.0376,0.0376,0,-0.0582,-0.0605,-0.0648,-0.0679,-0.0691,-0.0719,-0.0733,-0.0692,-0.0673,-0.057,-0.0544,-0.04,-0.0299,-0.0053,0.0087,0.0274,0.0297,0.035,0.0325,0.0296,0.0317,0.031,0.0302,0.0377,0.0377,0.0377,0.0377,0,-0.0625,-0.0643,-0.0674,-0.0745,-0.0779,-0.0801,-0.0809,-0.0794,-0.0722,-0.0682,-0.0534,-0.0392,-0.0226,-0.0039,0.0108,0.0239,0.0309,0.0356,0.0355,0.0331,0.03,0.0319,0.0311,0.0379,0.0379,0.0379,0.0378,0,-0.0658,-0.0694,-0.0744,-0.0798,-0.0849,-0.0863,-0.0856,-0.0802,-0.0763,-0.0628,-0.0575,-0.0386,-0.0261,-0.0056,0.008,0.0207,0.0232,0.0257,0.0262,0.0262,0.0198,0.014,0.0196,0,0,0,0,0,-0.0688,-0.0733,-0.0793,-0.0851,-0.09,-0.0919,-0.0898,-0.0867,-0.0789,-0.0689,-0.0622,-0.0459,-0.0218,-0.0107,0.002,0.0058,0.0226,0.0207,0.0249,0.0388,0.0386,0.0329,0,0,0,0,0,0,-0.071,-0.0775,-0.0802,-0.0883,-0.0926,-0.0964,-0.0942,-0.0883,-0.0804,-0.0706,-0.0571,-0.0464,-0.0232,-0.0304,0.0007,0.0048,0.0086,0.033,0.0332,0.0389,0.0387,0.0386,0.0327,0,0,0,0,0]}]]